Location: Recife
(8.0585°S, 34.8848°W)
Time: 21:26:51
(UTC-03:00)

A-11 Canister half - Pass Details

Date: 20 April 2026
Orbit: 1515 x 1684 km, 47.2° (Epoch: 12 May)

Event Time Altitude Azimuth Distance (km) Brightness Sun altitude
Rises 10:43:33 0° 356° (N) 4,833 11.9 68.5°
Reaches altitude 10° 10:48:22 10° 16° (NNE) 3,881 11.6 68.9°
Maximum altitude 10:54:02 17° 51° (NE) 3,413 11.4 69.4°
Drops below altitude 10° 10:59:45 10° 86° (E) 3,937 11.4 69.7°
Sets 11:04:36 0° 105° (ESE) 4,937 11.6 70.0°
